| time (UTC) | temp F | wind direction | speed knots | gust knots | rain 1hr in | rain 24hr in | rain mn in | humidity % | barometer mb |
| 20260505224304 | 71 | 212 | 2.6 | 5.2 | 0.00 | 0.00 | 0.00 | 91 | 1017.9 |
| 20260505223817 | 71 | 204 | 2.6 | 4.3 | 0.00 | 0.00 | 0.00 | 92 | 1018.0 |
| 20260505223306 | 70 | 217 | 2.6 | 4.3 | 0.00 | 0.00 | 0.00 | 93 | 1018.0 |
| 20260505222803 | 70 | 233 | 1.7 | 4.3 | 0.00 | 0.00 | 0.00 | 93 | 1017.9 |
| 20260505222527 | 69 | 261 | 1.7 | 4.3 | 0.00 | 0.00 | 0.00 | 94 | 1017.9 |
| 20260505221805 | 69 | 180 | 1.7 | 4.3 | 0.00 | 0.00 | 0.00 | 94 | 1017.8 |
| 20260505221235 | 69 | 180 | 1.7 | 5.2 | 0.00 | 0.00 | 0.00 | 94 | 1017.8 |
| 20260505220713 | 68 | 228 | 1.7 | 4.3 | 0.00 | 0.00 | 0.00 | 94 | 1017.9 |
| 20260505220217 | 68 | 221 | 1.7 | 4.3 | 0.00 | 0.00 | 0.00 | 95 | 1017.9 |
| 20260505215645 | 68 | 238 | 0.9 | 4.3 | 0.00 | 0.00 | 0.00 | 94 | 1017.8 |
| 20260505215150 | 68 | 206 | 0.9 | 3.5 | 0.00 | 0.00 | 0.00 | 94 | 1017.8 |
| 20260505214637 | 67 | 206 | 1.7 | 4.3 | 0.00 | 0.00 | 0.00 | 95 | 1017.8 |
| 20260505214133 | 67 | 201 | 0.9 | 4.3 | 0.00 | 0.00 | 0.00 | 94 | 1017.8 |
| 20260505213633 | 67 | 212 | 0.9 | 3.5 | 0.00 | 0.00 | 0.00 | 94 | 1017.7 |
| 20260505213353 | 67 | 212 | 0.9 | 3.5 | 0.00 | 0.00 | 0.00 | 95 | 1017.7 |
| 20260505212854 | 67 | 249 | 0.9 | 3.5 | 0.00 | 0.00 | 0.00 | 94 | 1017.6 |
| 20260505212357 | 66 | 249 | 0.9 | 3.5 | 0.00 | 0.00 | 0.00 | 94 | 1017.6 |
| 20260505211626 | 66 | 249 | 0.9 | 3.5 | 0.00 | 0.00 | 0.00 | 94 | 1017.6 |
| 20260505211127 | 66 | 249 | 0.9 | 2.6 | 0.00 | 0.00 | 0.00 | 94 | 1017.5 |
| 20260505210626 | 66 | 249 | 0.9 | 2.6 | 0.00 | 0.00 | 0.00 | 94 | 1017.3 |
| 20260505210127 | 66 | 249 | 0.9 | 2.6 | 0.00 | 0.00 | 0.00 | 94 | 1017.3 |
| 20260505205845 | 65 | 249 | 0.0 | 0.0 | 0.00 | 0.00 | 0.00 | 94 | 1017.3 |
| 20260505205122 | 66 | 249 | 0.0 | 0.0 | 0.00 | 0.00 | 0.00 | 94 | 1017.1 |
| 20260505204622 | 66 | 249 | 0.0 | 0.0 | 0.00 | 0.00 | 0.00 | 94 | 1017.1 |
| 20260505204121 | 66 | 249 | 0.0 | 0.0 | 0.00 | 0.00 | 0.00 | 94 | 1017.1 |
| 20260505203623 | 66 | 250 | 0.0 | 0.0 | 0.00 | 0.00 | 0.00 | 94 | 1016.9 |
| 20260505203106 | 66 | 249 | 0.0 | 0.0 | 0.00 | 0.00 | 0.00 | 94 | 1016.9 |
| 20260505202606 | 66 | 249 | 0.0 | 0.0 | 0.00 | 0.00 | 0.00 | 94 | 1016.9 |
| 20260505202100 | 66 | 249 | 0.0 | 0.0 | 0.00 | 0.00 | 0.00 | 94 | 1016.9 |
| 20260505201828 | 66 | 249 | 0.0 | 0.0 | 0.00 | 0.00 | 0.00 | 94 | 1016.8 |
| 20260505201059 | 66 | 250 | 0.0 | 0.0 | 0.00 | 0.00 | 0.00 | 94 | 1016.9 |
| 20260505200557 | 66 | 249 | 0.0 | 0.0 | 0.00 | 0.00 | 0.00 | 94 | 1016.8 |
| 20260505200109 | 66 | 249 | 0.0 | 1.7 | 0.00 | 0.00 | 0.00 | 94 | 1016.8 |
| 20260505195557 | 66 | 249 | 0.0 | 1.7 | 0.00 | 0.00 | 0.00 | 94 | 1016.7 |
| 20260505195055 | 66 | 249 | 0.0 | 1.7 | 0.00 | 0.00 | 0.00 | 94 | 1016.7 |
| 20260505194555 | 67 | 250 | 0.9 | 2.6 | 0.00 | 0.00 | 0.00 | 94 | 1016.6 |
| 20260505194058 | 67 | 249 | 0.0 | 2.6 | 0.00 | 0.00 | 0.00 | 94 | 1016.6 |
| 20260505193549 | 67 | 249 | 0.0 | 2.6 | 0.00 | 0.00 | 0.00 | 94 | 1016.6 |
| 20260505193050 | 67 | 249 | 0.0 | 2.6 | 0.00 | 0.00 | 0.00 | 94 | 1016.6 |
| 20260505192545 | 67 | 249 | 0.0 | 2.6 | 0.00 | 0.00 | 0.00 | 94 | 1016.6 |
| 20260505192050 | 67 | 249 | 0.0 | 2.6 | 0.00 | 0.00 | 0.00 | 94 | 1016.7 |
| 20260505191522 | 67 | 255 | 0.0 | 1.7 | 0.00 | 0.01 | 0.00 | 94 | 1016.6 |
| 20260505191022 | 67 | 239 | 0.0 | 0.0 | 0.00 | 0.01 | 0.00 | 94 | 1016.6 |
| 20260505190520 | 67 | 239 | 0.0 | 0.9 | 0.00 | 0.01 | 0.00 | 94 | 1016.6 |
| 20260505190247 | 67 | 239 | 0.0 | 0.9 | 0.00 | 0.01 | 0.00 | 94 | 1016.6 |
| 20260505185515 | 67 | 239 | 0.0 | 0.9 | 0.00 | 0.01 | 0.00 | 94 | 1016.6 |
| 20260505185014 | 67 | 239 | 0.0 | 1.7 | 0.00 | 0.01 | 0.00 | 94 | 1016.5 |
| 20260505184511 | 67 | 239 | 0.0 | 1.7 | 0.00 | 0.01 | 0.00 | 94 | 1016.5 |
| 20260505184011 | 67 | 239 | 0.0 | 2.6 | 0.00 | 0.01 | 0.00 | 94 | 1016.2 |
| 20260505183507 | 67 | 239 | 0.0 | 2.6 | 0.00 | 0.01 | 0.00 | 94 | 1016.2 |
| 20260505183021 | 67 | 239 | 0.0 | 1.7 | 0.00 | 0.01 | 0.00 | 94 | 1016.2 |
| 20260505182959 | 67 | 239 | 0.0 | 0.0 | 0.00 | 0.01 | 0.00 | 94 | 1016.2 |
| 20260505182006 | 67 | 239 | 0.0 | 0.0 | 0.00 | 0.01 | 0.00 | 94 | 1016.2 |
| 20260505181517 | 67 | 239 | 0.0 | 0.0 | 0.00 | 0.01 | 0.00 | 94 | 1016.1 |
| 20260505180958 | 67 | 239 | 0.0 | 0.0 | 0.00 | 0.01 | 0.00 | 94 | 1016.0 |
| 20260505180455 | 67 | 239 | 0.0 | 0.0 | 0.00 | 0.01 | 0.00 | 94 | 1016.0 |
| 20260505175955 | 67 | 239 | 0.0 | 0.9 | 0.00 | 0.01 | 0.00 | 94 | 1016.0 |
| 20260505175455 | 67 | 239 | 0.0 | 0.9 | 0.00 | 0.01 | 0.00 | 94 | 1016.1 |
| 20260505174935 | 67 | 239 | 0.0 | 0.0 | 0.00 | 0.01 | 0.00 | 94 | 1016.0 |
| 20260505174434 | 67 | 239 | 0.0 | 0.0 | 0.00 | 0.01 | 0.00 | 94 | 1016.1 |
| 20260505173912 | 67 | 239 | 0.0 | 0.0 | 0.00 | 0.01 | 0.00 | 93 | 1016.2 |
| 20260505173635 | 67 | 239 | 0.0 | 0.0 | 0.00 | 0.01 | 0.00 | 93 | 1016.2 |
| 20260505172907 | 67 | 239 | 0.0 | 1.7 | 0.00 | 0.01 | 0.00 | 93 | 1016.2 |
| 20260505172405 | 67 | 239 | 0.0 | 1.7 | 0.00 | 0.01 | 0.00 | 93 | 1016.2 |
| 20260505171902 | 67 | 239 | 0.0 | 1.7 | 0.00 | 0.01 | 0.00 | 93 | 1016.2 |
| 20260505171400 | 67 | 239 | 0.0 | 1.7 | 0.00 | 0.01 | 0.00 | 93 | 1016.3 |
| 20260505170911 | 67 | 239 | 0.0 | 0.0 | 0.00 | 0.01 | 0.00 | 93 | 1016.5 |
| 20260505170411 | 67 | 239 | 0.0 | 0.0 | 0.00 | 0.01 | 0.00 | 93 | 1016.6 |
| 20260505165854 | 67 | 239 | 0.0 | 3.5 | 0.00 | 0.01 | 0.00 | 93 | 1016.6 |
| 20260505165354 | 67 | 239 | 0.9 | 3.5 | 0.00 | 0.01 | 0.00 | 93 | 1016.6 |
| 20260505165110 | 67 | 239 | 0.9 | 3.5 | 0.00 | 0.01 | 0.00 | 93 | 1016.6 |
| 20260505164345 | 67 | 239 | 0.9 | 3.5 | 0.00 | 0.01 | 0.00 | 93 | 1016.6 |
| 20260505163842 | 67 | 175 | 0.0 | 0.0 | 0.00 | 0.01 | 0.00 | 93 | 1016.6 |
| 20260505163601 | 67 | 175 | 0.0 | 0.0 | 0.00 | 0.01 | 0.00 | 93 | 1016.5 |
| 20260505162829 | 67 | 175 | 0.0 | 0.0 | 0.00 | 0.01 | 0.00 | 93 | 1016.5 |
| 20260505162547 | 67 | 175 | 0.0 | 0.0 | 0.00 | 0.01 | 0.00 | 93 | 1016.6 |
| 20260505161800 | 67 | 175 | 0.0 | 0.0 | 0.00 | 0.01 | 0.00 | 93 | 1016.6 |
| 20260505161254 | 67 | 175 | 0.0 | 0.0 | 0.00 | 0.01 | 0.00 | 93 | 1016.7 |
| 20260505160752 | 67 | 175 | 0.0 | 1.7 | 0.00 | 0.01 | 0.00 | 93 | 1016.8 |
| 20260505160524 | 67 | 175 | 0.0 | 1.7 | 0.00 | 0.01 | 0.00 | 93 | 1016.8 |
| 20260505153234 | 68 | 175 | 0.0 | 0.9 | 0.00 | 0.01 | 0.00 | 93 | 1016.9 |
| 20260505152732 | 68 | 175 | 0.0 | 1.7 | 0.00 | 0.01 | 0.00 | 93 | 1017.1 |
| 20260505152231 | 68 | 175 | 0.0 | 1.7 | 0.00 | 0.01 | 0.00 | 93 | 1017.1 |
| 20260505151724 | 68 | 175 | 0.0 | 2.6 | 0.00 | 0.01 | 0.00 | 93 | 1017.1 |
| 20260505151222 | 68 | 175 | 0.9 | 2.6 | 0.00 | 0.01 | 0.00 | 93 | 1017.1 |
| 20260505150720 | 68 | 175 | 0.9 | 4.3 | 0.00 | 0.01 | 0.00 | 93 | 1017.0 |
| 20260505150449 | 68 | 160 | 0.9 | 4.3 | 0.00 | 0.01 | 0.00 | 94 | 1017.0 |
| 20260505140157 | 66 | 147 | 0.0 | 0.0 | 0.00 | 0.01 | 0.00 | 92 | 1017.5 |
| 20260505124952 | 67 | 147 | 0.0 | 0.0 | 0.00 | 0.01 | 0.01 | 91 | 1017.5 |
| 20260505124504 | 67 | 147 | 0.0 | 0.0 | 0.00 | 0.01 | 0.01 | 91 | 1017.4 |
| 20260505123950 | 67 | 147 | 0.0 | 0.0 | 0.00 | 0.01 | 0.01 | 91 | 1017.2 |
| 20260505123447 | 67 | 147 | 0.0 | 0.0 | 0.00 | 0.01 | 0.01 | 91 | 1017.4 |
| 20260505122945 | 67 | 147 | 0.0 | 0.0 | 0.00 | 0.01 | 0.01 | 91 | 1017.4 |
| 20260505122441 | 67 | 147 | 0.0 | 0.0 | 0.00 | 0.01 | 0.01 | 91 | 1017.4 |
| 20260505121939 | 67 | 147 | 0.0 | 0.0 | 0.00 | 0.01 | 0.01 | 91 | 1017.6 |
| 20260505121702 | 67 | 147 | 0.0 | 0.0 | 0.00 | 0.01 | 0.01 | 91 | 1017.6 |
| 20260505120938 | 67 | 147 | 0.0 | 0.0 | 0.00 | 0.01 | 0.01 | 91 | 1017.4 |
| 20260505120411 | 67 | 147 | 0.0 | 0.0 | 0.00 | 0.01 | 0.01 | 91 | 1017.4 |
| 20260505115904 | 67 | 147 | 0.0 | 0.0 | 0.00 | 0.01 | 0.01 | 91 | 1017.3 |
| 20260505115634 | 67 | 147 | 0.0 | 0.0 | 0.00 | 0.01 | 0.01 | 91 | 1017.4 |
| 20260505115127 | 67 | 147 | 0.0 | 0.0 | 0.00 | 0.01 | 0.01 | 90 | 1017.5 |
| 20260505114403 | 67 | 147 | 0.0 | 0.0 | 0.00 | 0.01 | 0.01 | 90 | 1017.6 |
| 20260505113904 | 67 | 147 | 0.0 | 0.0 | 0.00 | 0.01 | 0.01 | 90 | 1017.6 |
| 20260505113358 | 68 | 147 | 0.0 | 0.0 | 0.00 | 0.01 | 0.01 | 90 | 1017.6 |
| 20260505112858 | 68 | 147 | 0.0 | 0.0 | 0.00 | 0.01 | 0.01 | 90 | 1017.7 |
| 20260505112615 | 68 | 147 | 0.0 | 1.7 | 0.00 | 0.01 | 0.01 | 90 | 1017.7 |
| 20260505111854 | 68 | 147 | 0.0 | 1.7 | 0.00 | 0.01 | 0.01 | 90 | 1017.8 |
| 20260505111351 | 68 | 147 | 0.0 | 1.7 | 0.00 | 0.01 | 0.01 | 90 | 1017.7 |
| 20260505110854 | 68 | 147 | 0.0 | 0.0 | 0.00 | 0.01 | 0.01 | 90 | 1017.6 |
| 20260505110351 | 68 | 147 | 0.0 | 0.0 | 0.00 | 0.01 | 0.01 | 90 | 1017.7 |
| 20260505102125 | 69 | 147 | 0.0 | 1.7 | 0.00 | 0.01 | 0.01 | 89 | 1017.5 |
| 20260505101609 | 69 | 147 | 0.9 | 1.7 | 0.00 | 0.01 | 0.01 | 89 | 1017.3 |
| 20260505101111 | 69 | 147 | 0.0 | 1.7 | 0.00 | 0.01 | 0.01 | 88 | 1017.2 |
| 20260505100544 | 69 | 147 | 0.0 | 2.6 | 0.00 | 0.01 | 0.01 | 88 | 1017.2 |
| 20260505100030 | 69 | 147 | 0.0 | 2.6 | 0.00 | 0.01 | 0.01 | 88 | 1017.1 |
| 20260505095527 | 69 | 147 | 0.9 | 3.5 | 0.00 | 0.01 | 0.01 | 88 | 1017.0 |
| 20260505095000 | 69 | 147 | 0.0 | 3.5 | 0.00 | 0.01 | 0.01 | 87 | 1017.1 |
| 20260505094458 | 70 | 82 | 0.0 | 0.0 | 0.00 | 0.01 | 0.01 | 87 | 1017.2 |
| 20260505093958 | 70 | 82 | 0.0 | 0.0 | 0.00 | 0.01 | 0.01 | 86 | 1017.3 |
| 20260505093715 | 70 | 82 | 0.0 | 0.0 | 0.00 | 0.01 | 0.01 | 86 | 1017.3 |
| 20260505092954 | 70 | 82 | 0.0 | 0.0 | 0.00 | 0.01 | 0.01 | 86 | 1017.2 |
| 20260505092453 | 70 | 82 | 0.0 | 0.0 | 0.00 | 0.01 | 0.01 | 86 | 1017.1 |
| 20260505091950 | 70 | 82 | 0.0 | 0.0 | 0.00 | 0.01 | 0.01 | 86 | 1017.1 |
| 20260505091449 | 70 | 82 | 0.0 | 0.0 | 0.00 | 0.01 | 0.01 | 86 | 1017.0 |
| 20260505090952 | 71 | 82 | 0.0 | 0.0 | 0.00 | 0.01 | 0.01 | 85 | 1017.1 |
| 20260505090448 | 71 | 82 | 0.0 | 0.0 | 0.00 | 0.01 | 0.01 | 86 | 1017.0 |
| 20260505085946 | 71 | 82 | 0.0 | 0.0 | 0.00 | 0.01 | 0.01 | 85 | 1017.0 |
| 20260505085446 | 71 | 82 | 0.0 | 0.0 | 0.00 | 0.01 | 0.01 | 85 | 1016.9 |
| 20260505084940 | 71 | 82 | 0.0 | 0.0 | 0.00 | 0.01 | 0.01 | 85 | 1016.9 |
| 20260505084658 | 71 | 82 | 0.0 | 0.0 | 0.00 | 0.01 | 0.01 | 84 | 1016.7 |
| 20260505083934 | 71 | 82 | 0.0 | 0.0 | 0.00 | 0.01 | 0.01 | 85 | 1016.6 |
| 20260505083434 | 72 | 82 | 0.0 | 0.0 | 0.00 | 0.01 | 0.01 | 84 | 1016.6 |
| 20260505082932 | 72 | 82 | 0.0 | 0.0 | 0.00 | 0.01 | 0.01 | 84 | 1016.5 |
| 20260505082433 | 72 | 82 | 0.0 | 0.0 | 0.00 | 0.01 | 0.01 | 84 | 1016.1 |
| 20260505082136 | 72 | 82 | 0.0 | 0.0 | 0.00 | 0.01 | 0.01 | 84 | 1016.0 |
| 20260505081417 | 72 | 82 | 0.0 | 0.0 | 0.00 | 0.01 | 0.01 | 83 | 1016.1 |
| 20260505081106 | 72 | 82 | 0.0 | 0.0 | 0.00 | 0.01 | 0.01 | 83 | 1015.8 |
| 20260505080348 | 72 | 82 | 0.0 | 0.0 | 0.00 | 0.01 | 0.01 | 83 | 1015.7 |
| 20260505075844 | 73 | 82 | 0.0 | 0.0 | 0.00 | 0.01 | 0.01 | 82 | 1015.8 |
| 20260505075345 | 73 | 82 | 0.0 | 0.0 | 0.00 | 0.01 | 0.01 | 82 | 1015.8 |
| 20260505074842 | 73 | 82 | 0.0 | 0.0 | 0.00 | 0.01 | 0.01 | 82 | 1015.9 |
| 20260505074340 | 73 | 82 | 0.0 | 0.0 | 0.00 | 0.01 | 0.01 | 82 | 1015.8 |
| 20260505073838 | 73 | 82 | 0.0 | 0.0 | 0.00 | 0.01 | 0.01 | 82 | 1015.8 |
| 20260505073336 | 73 | 82 | 0.0 | 0.0 | 0.00 | 0.01 | 0.01 | 82 | 1015.7 |
| 20260505072833 | 73 | 82 | 0.0 | 1.7 | 0.00 | 0.01 | 0.01 | 82 | 1015.7 |
| 20260505072332 | 74 | 82 | 0.0 | 1.7 | 0.00 | 0.01 | 0.01 | 82 | 1015.5 |
| 20260505071832 | 74 | 82 | 0.0 | 1.7 | 0.00 | 0.01 | 0.01 | 82 | 1015.5 |
| 20260505071328 | 74 | 82 | 0.0 | 1.7 | 0.00 | 0.01 | 0.01 | 82 | 1015.4 |
| 20260505070826 | 74 | 82 | 0.0 | 1.7 | 0.00 | 0.01 | 0.01 | 81 | 1015.5 |
| 20260505070320 | 74 | 82 | 0.0 | 1.7 | 0.00 | 0.01 | 0.01 | 81 | 1015.5 |
| 20260505065818 | 74 | 82 | 0.0 | 2.6 | 0.00 | 0.01 | 0.01 | 80 | 1015.3 |
| 20260505065316 | 74 | 82 | 0.9 | 3.5 | 0.00 | 0.01 | 0.01 | 80 | 1015.3 |
| 20260505064817 | 75 | 82 | 0.0 | 3.5 | 0.00 | 0.01 | 0.01 | 80 | 1015.3 |
| 20260505064249 | 75 | 83 | 0.0 | 4.3 | 0.00 | 0.01 | 0.01 | 79 | 1015.2 |
| 20260505063956 | 75 | 83 | 0.0 | 4.3 | 0.00 | 0.01 | 0.01 | 79 | 1015.4 |
| 20260505063451 | 75 | 68 | 0.9 | 4.3 | 0.00 | 0.01 | 0.01 | 78 | 1015.4 |
| 20260505062703 | 75 | 68 | 1.7 | 4.3 | 0.00 | 0.01 | 0.01 | 78 | 1015.5 |
| 20260505062145 | 76 | 60 | 0.9 | 3.5 | 0.00 | 0.01 | 0.01 | 78 | 1015.4 |
| 20260505061645 | 76 | 46 | 0.9 | 2.6 | 0.00 | 0.01 | 0.01 | 77 | 1015.5 |
| 20260505061341 | 76 | 46 | 0.0 | 2.6 | 0.00 | 0.01 | 0.01 | 77 | 1015.4 |
| 20260505060558 | 76 | 46 | 0.9 | 3.5 | 0.00 | 0.01 | 0.01 | 77 | 1015.2 |
| 20260505055530 | 76 | 47 | 0.9 | 3.5 | 0.00 | 0.01 | 0.01 | 76 | 1015.1 |
| 20260505055231 | 77 | 47 | 0.9 | 3.5 | 0.00 | 0.01 | 0.01 | 75 | 1015.0 |
| 20260505054510 | 77 | 49 | 0.9 | 3.5 | 0.00 | 0.01 | 0.01 | 75 | 1015.0 |
| 20260505054010 | 77 | 54 | 0.9 | 3.5 | 0.00 | 0.01 | 0.01 | 74 | 1015.0 |
| 20260505053736 | 78 | 51 | 0.9 | 3.5 | 0.00 | 0.01 | 0.01 | 73 | 1015.1 |
| 20260505053007 | 78 | 51 | 1.7 | 3.5 | 0.00 | 0.01 | 0.01 | 72 | 1015.2 |
| 20260505052501 | 78 | 92 | 0.9 | 3.5 | 0.00 | 0.01 | 0.01 | 71 | 1015.2 |
| 20260505052002 | 79 | 92 | 0.9 | 3.5 | 0.00 | 0.01 | 0.01 | 71 | 1015.2 |
| 20260505051502 | 79 | 94 | 0.9 | 4.3 | 0.00 | 0.01 | 0.01 | 70 | 1015.3 |
| 20260505051228 | 79 | 77 | 1.7 | 4.3 | 0.00 | 0.01 | 0.01 | 70 | 1015.2 |
| 20260505050500 | 79 | 14 | 1.7 | 3.5 | 0.00 | 0.01 | 0.01 | 70 | 1015.2 |
| 20260505041439 | 81 | 18 | 1.7 | 6.1 | 0.00 | 0.01 | 0.01 | 65 | 1014.7 |
| 20260505040937 | 81 | 347 | 1.7 | 6.1 | 0.00 | 0.01 | 0.01 | 64 | 1014.7 |
| 20260505040702 | 81 | 10 | 2.6 | 6.1 | 0.00 | 0.01 | 0.01 | 64 | 1014.6 |
| 20260505035935 | 81 | 25 | 2.6 | 6.1 | 0.00 | 0.01 | 0.01 | 64 | 1014.6 |
| 20260505035431 | 81 | 27 | 1.7 | 6.1 | 0.00 | 0.01 | 0.01 | 65 | 1014.6 |
| 20260505034931 | 82 | 52 | 1.7 | 6.1 | 0.00 | 0.01 | 0.01 | 64 | 1014.5 |
| 20260505034424 | 82 | 48 | 0.9 | 6.1 | 0.00 | 0.01 | 0.01 | 64 | 1014.6 |
| 20260505033921 | 82 | 95 | 0.9 | 3.5 | 0.00 | 0.01 | 0.01 | 64 | 1014.7 |
| 20260505033420 | 82 | 165 | 0.9 | 4.3 | 0.00 | 0.01 | 0.01 | 64 | 1014.6 |
| 20260505032922 | 82 | 165 | 1.7 | 3.5 | 0.00 | 0.01 | 0.01 | 61 | 1014.6 |
| 20260505032359 | 82 | 165 | 1.7 | 4.3 | 0.00 | 0.01 | 0.01 | 60 | 1014.5 |
| 20260505031902 | 83 | 122 | 1.7 | 4.3 | 0.00 | 0.01 | 0.01 | 62 | 1014.6 |
| 20260505031616 | 83 | 122 | 0.9 | 4.3 | 0.00 | 0.01 | 0.01 | 63 | 1014.7 |
| 20260505031117 | 83 | 122 | 0.9 | 2.6 | 0.00 | 0.01 | 0.01 | 65 | 1014.7 |
| 20260505030346 | 82 | 122 | 0.9 | 2.6 | 0.00 | 0.01 | 0.01 | 64 | 1014.7 |
| 20260505025844 | 82 | 200 | 0.9 | 2.6 | 0.00 | 0.01 | 0.01 | 64 | 1014.8 |
| 20260505025605 | 82 | 185 | 0.9 | 2.6 | 0.00 | 0.01 | 0.01 | 64 | 1014.8 |
| 20260505024839 | 81 | 185 | 0.9 | 2.6 | 0.00 | 0.01 | 0.01 | 64 | 1015.0 |
| 20260505024338 | 81 | 185 | 0.9 | 2.6 | 0.00 | 0.01 | 0.01 | 65 | 1015.2 |
| 20260505023836 | 81 | 93 | 0.9 | 2.6 | 0.00 | 0.01 | 0.01 | 65 | 1015.3 |
| 20260505023335 | 81 | 101 | 0.9 | 2.6 | 0.00 | 0.01 | 0.01 | 65 | 1015.5 |
| 20260505022836 | 80 | 101 | 0.9 | 2.6 | 0.00 | 0.01 | 0.01 | 65 | 1015.4 |
| 20260505022333 | 80 | 101 | 0.9 | 2.6 | 0.00 | 0.01 | 0.01 | 65 | 1015.5 |
| 20260505022045 | 81 | 94 | 0.9 | 4.3 | 0.00 | 0.01 | 0.01 | 65 | 1015.7 |
| 20260505021328 | 81 | 94 | 0.9 | 4.3 | 0.00 | 0.01 | 0.01 | 65 | 1015.5 |
| 20260505020841 | 81 | 214 | 0.9 | 4.3 | 0.00 | 0.01 | 0.01 | 65 | 1015.5 |
| 20260505020330 | 81 | 208 | 0.9 | 4.3 | 0.00 | 0.01 | 0.01 | 64 | 1015.6 |
| 20260505015800 | 81 | 100 | 0.9 | 3.5 | 0.00 | 0.01 | 0.01 | 64 | 1015.7 |
| 20260505015242 | 81 | 93 | 0.9 | 3.5 | 0.00 | 0.01 | 0.01 | 64 | 1015.8 |
| 20260505014743 | 81 | 82 | 0.9 | 3.5 | 0.00 | 0.01 | 0.01 | 64 | 1015.8 |
| 20260505014215 | 82 | 74 | 0.9 | 3.5 | 0.00 | 0.01 | 0.01 | 64 | 1015.9 |
| 20260505013916 | 81 | 74 | 1.7 | 3.5 | 0.00 | 0.01 | 0.01 | 64 | 1016.0 |
| 20260505013157 | 81 | 160 | 0.9 | 3.5 | 0.00 | 0.01 | 0.01 | 63 | 1016.1 |
| 20260505012855 | 81 | 160 | 0.9 | 2.6 | 0.00 | 0.01 | 0.01 | 68 | 1016.2 |
| 20260505012129 | 81 | 160 | 1.7 | 3.5 | 0.00 | 0.01 | 0.01 | 68 | 1016.5 |
| 20260505011627 | 80 | 149 | 0.9 | 3.5 | 0.00 | 0.01 | 0.01 | 69 | 1016.6 |
| 20260505011343 | 80 | 125 | 0.9 | 3.5 | 0.00 | 0.01 | 0.01 | 70 | 1016.7 |
| 20260505010622 | 80 | 125 | 1.7 | 3.5 | 0.00 | 0.01 | 0.01 | 69 | 1016.9 |
| 20260505010352 | 80 | 125 | 1.7 | 3.5 | 0.00 | 0.01 | 0.01 | 68 | 1016.9 |
| 20260505005617 | 80 | 133 | 0.9 | 3.5 | 0.00 | 0.01 | 0.01 | 69 | 1017.0 |
| 20260505005115 | 79 | 133 | 0.9 | 4.3 | 0.00 | 0.01 | 0.01 | 69 | 1017.1 |
| 20260505004842 | 79 | 206 | 1.7 | 4.3 | 0.00 | 0.01 | 0.01 | 69 | 1017.1 |
| 20260505004114 | 79 | 206 | 1.7 | 4.3 | 0.00 | 0.01 | 0.01 | 71 | 1017.1 |
| 20260505003613 | 79 | 199 | 1.7 | 4.3 | 0.00 | 0.01 | 0.01 | 72 | 1017.2 |
| 20260505003112 | 79 | 330 | 0.9 | 3.5 | 0.00 | 0.01 | 0.01 | 73 | 1017.2 |
| 20260505002613 | 79 | 190 | 0.9 | 3.5 | 0.00 | 0.01 | 0.01 | 74 | 1017.3 |
| 20260505002048 | 78 | 189 | 1.7 | 3.5 | 0.00 | 0.01 | 0.01 | 75 | 1017.3 |
| 20260505001521 | 78 | 198 | 0.9 | 3.5 | 0.00 | 0.01 | 0.01 | 76 | 1017.4 |
| 20260505000956 | 77 | 198 | 0.9 | 3.5 | 0.00 | 0.01 | 0.01 | 77 | 1017.5 |
| 20260505000430 | 77 | 228 | 1.7 | 4.3 | 0.00 | 0.01 | 0.01 | 78 | 1017.5 |
| 20260504235901 | 76 | 231 | 1.7 | 4.3 | 0.00 | 0.01 | 0.01 | 79 | 1017.5 |
| 20260504235333 | 76 | 225 | 0.9 | 2.6 | 0.00 | 0.01 | 0.01 | 80 | 1017.5 |
| 20260504234808 | 75 | 225 | 0.9 | 3.5 | 0.00 | 0.01 | 0.01 | 81 | 1017.6 |
| 20260504234240 | 75 | 228 | 1.7 | 3.5 | 0.00 | 0.01 | 0.01 | 82 | 1017.7 |
| 20260504233940 | 75 | 197 | 0.9 | 4.3 | 0.00 | 0.01 | 0.01 | 83 | 1017.7 |
| 20260504233149 | 74 | 254 | 0.9 | 4.3 | 0.00 | 0.01 | 0.01 | 84 | 1017.8 |
| 20260504232630 | 74 | 180 | 1.7 | 4.3 | 0.00 | 0.01 | 0.01 | 85 | 1017.8 |
| 20260504232131 | 74 | 238 | 1.7 | 4.3 | 0.00 | 0.01 | 0.01 | 86 | 1017.8 |
| 20260504231606 | 74 | 200 | 1.7 | 5.2 | 0.00 | 0.01 | 0.01 | 88 | 1017.8 |
| 20260504231036 | 73 | 239 | 1.7 | 5.2 | 0.00 | 0.01 | 0.01 | 88 | 1017.8 |
| 20260504230512 | 73 | 175 | 1.7 | 4.3 | 0.00 | 0.01 | 0.01 | 90 | 1017.8 |
| 20260504225948 | 72 | 219 | 0.9 | 4.3 | 0.00 | 0.01 | 0.01 | 91 | 1017.8 |
| 20260504225423 | 71 | 210 | 0.9 | 2.6 | 0.00 | 0.01 | 0.01 | 92 | 1017.8 |
| 20260504224900 | 71 | 210 | 0.9 | 4.3 | 0.00 | 0.01 | 0.01 | 93 | 1017.8 |